Wind_Speed
34 35 35 35 35 35 35 36 36 37 37 36 36 36 36 35 35 34 34 34 33 33 33 33 33 33 34 34 34 34 34 33 34 33 34 35 35 35 35 36 37 38 40
34 34 34 34 34 35 35 36 36 36 36 35 35 35 34 34 33 33 33 32 32 31 32 32 31 31 32 32 31 32 32 32 32 32 33 34 33 33 33 34 35 37 38
33 33 33 33 33 34 34 35 35 35 35 35 34 33 33 33 32 32 31 31 30 30 30 31 31 30 30 29 29 30 31 31 32 32 32 32 32 32 32 32 33 34 36
32 32 32 31 32 32 33 33 34 34 34 33 33 33 33 32 32 31 30 29 29 29 29 29 29 29 30 29 29 30 30 30 30 30 31 30 30 30 30 31 32 32 33
30 30 29 30 30 31 31 32 32 32 32 31 31 32 32 32 31 31 30 29 28 28 28 28 28 29 29 29 29 29 28 28 28 28 28 28 28 28 29 29 30 30 31
29 29 29 29 29 29 30 30 30 30 30 30 31 31 31 31 30 29 28 28 27 27 27 27 28 28 29 28 28 27 27 26 26 26 26 26 26 27 27 27 29 29 29
29 29 29 28 28 29 29 29 29 29 28 28 29 29 29 28 28 27 27 27 27 26 27 28 28 28 28 28 26 25 24 24 25 25 24 24 24 25 26 27 27 28 27
28 28 28 28 28 28 28 28 28 27 27 28 28 28 28 27 26 26 26 26 26 26 27 28 28 28 27 26 25 24 24 24 23 23 23 23 24 25 25 26 25 26 25
28 27 27 27 27 28 28 27 27 27 27 28 28 27 26 26 25 25 25 25 25 25 26 27 26 25 25 25 24 23 23 22 22 22 22 22 23 24 25 24 24 24 24
28 27 27 26 26 26 26 26 26 26 27 27 27 26 25 24 24 24 24 24 25 25 25 25 25 25 24 23 23 23 21 21 22 22 22 22 23 24 24 24 23 24 25
27 26 26 26 25 25 25 25 25 25 25 24 24 23 23 23 23 23 24 24 24 24 24 24 24 23 22 21 21 21 21 21 22 22 22 23 24 24 24 24 24 25 25
26 25 25 25 24 24 24 24 24 24 24 23 22 22 22 22 22 22 23 23 23 23 23 22 22 22 22 21 21 21 21 22 22 23 24 24 24 24 24 24 25 25 24
25 25 25 25 24 24 23 23 23 24 24 23 22 21 21 22 22 22 23 23 22 22 22 22 22 21 20 20 21 21 21 23 24 24 24 25 25 24 24 25 25 24 23
25 24 24 24 24 24 24 24 23 23 22 21 20 20 20 21 21 22 22 22 22 22 22 22 21 20 20 20 20 21 22 23 24 24 25 25 25 25 25 25 24 23 21
24 24 24 24 24 24 23 23 22 21 20 20 20 20 20 20 21 21 21 21 22 22 21 21 20 19 19 20 20 21 23 24 24 25 25 25 25 25 24 23 21 20 20
24 23 23 23 22 22 21 21 20 20 19 19 19 20 20 20 20 21 21 22 22 22 21 21 20 19 19 20 21 22 23 24 25 25 25 25 24 23 22 21 20 19 19
24 23 22 22 22 22 21 20 19 19 19 19 19 20 20 20 21 21 22 21 21 21 20 19 19 20 20 21 22 23 24 25 26 26 25 24 23 22 20 19 18 17 18
22 22 22 21 21 21 21 20 21 20 20 20 20 20 21 21 21 21 21 21 21 20 20 20 20 21 21 22 23 24 25 25 26 25 24 22 21 20 19 17 16 16 16
22 22 22 21 21 21 20 20 21 21 20 20 20 21 21 21 21 21 21 21 21 21 21 21 21 22 22 24 24 25 26 25 25 24 22 21 19 18 17 16 16 16 15
22 22 21 21 21 21 20 19 20 20 20 20 20 20 21 21 22 22 22 22 22 21 22 22 23 23 24 25 25 26 26 25 24 22 20 20 19 18 17 17 16 16 15
23 23 22 21 21 20 20 20 20 21 21 21 21 22 22 22 22 22 22 22 22 22 23 23 24 25 25 26 26 26 25 23 21 21 20 19 18 17 17 16 16 15 15
22 22 22 22 22 21 21 20 20 21 21 22 22 22 23 23 23 23 23 23 23 23 24 25 25 25 26 26 26 25 23 21 21 20 19 18 17 17 16 16 15 14 14
22 22 22 22 22 22 22 21 21 21 21 21 22 22 22 23 23 23 23 24 24 25 25 26 26 25 25 25 24 22 21 21 20 19 18 17 16 16 15 14 14 13 12
22 22 22 22 22 22 22 22 22 22 21 21 21 21 22 22 23 23 24 25 26 26 27 26 25 25 25 24 22 21 20 19 18 17 17 16 16 15 15 14 13 12 11
23 23 23 23 23 23 23 22 22 22 22 22 22 23 23 23 24 24 25 26 26 26 25 25 25 24 23 22 20 19 18 17 17 17 16 16 16 15 14 13 12 11 11
23 23 23 23 24 24 24 23 23 23 23 23 23 23 23 24 24 25 26 26 26 25 25 25 24 23 22 20 19 18 18 17 17 16 16 15 15 15 14 13 12 11 10
Wind_Direction
272 274 276 276 277 279 281 283 285 286 286 287 287 288 290 291 291 291 291 291 293 294 294 293 293 292 292 291 287 285 284 284 282 281 279 279 280 280 281 282 283 284 284
272 274 276 277 279 281 282 284 286 286 286 286 286 288 289 290 291 291 291 292 293 293 295 294 293 293 293 292 288 286 286 285 283 283 282 280 282 281 283 285 287 288 287
272 274 276 277 279 281 283 285 287 287 286 286 286 287 288 289 290 290 291 292 293 295 296 295 293 294 295 292 290 288 288 286 284 284 284 283 285 284 285 287 290 290 292
272 274 276 277 280 282 285 286 287 287 286 286 285 286 288 289 290 290 290 291 293 294 296 297 296 296 295 293 292 291 289 287 286 285 285 285 287 286 288 290 291 292 294
272 274 276 278 281 283 286 287 287 287 286 286 286 286 288 289 289 289 289 290 292 294 296 297 297 298 297 296 295 294 291 289 288 289 288 287 289 289 290 291 293 295 297
272 274 277 279 281 283 286 288 288 287 286 286 287 286 288 289 289 288 289 290 291 293 295 296 298 300 298 298 299 296 293 290 290 291 290 290 291 292 292 293 296 296 297
271 274 277 280 282 284 286 289 289 288 287 289 288 289 290 290 290 288 288 289 291 293 294 296 298 301 300 299 299 298 296 292 291 294 294 295 295 295 295 296 299 301 300
271 274 277 280 282 284 285 287 288 289 288 289 289 290 290 289 289 288 287 286 289 291 293 295 297 299 298 298 297 297 299 297 296 296 297 296 297 297 299 301 302 303 304
269 273 277 279 281 283 285 286 288 289 288 288 288 289 289 289 288 287 286 286 288 290 292 295 297 298 298 297 296 297 300 300 300 300 299 301 302 303 303 304 305 305 306
270 273 275 277 280 283 284 286 288 290 289 288 287 287 287 288 288 287 287 288 288 291 294 295 296 297 297 297 298 299 298 300 301 302 302 303 303 305 305 305 306 307 307
270 272 275 278 280 282 284 285 287 290 291 290 288 286 285 285 287 288 288 290 292 294 295 295 295 295 295 298 299 300 301 302 302 303 303 303 304 305 305 305 305 306 306
270 272 273 276 278 281 283 285 287 289 291 291 288 286 284 285 287 289 289 291 292 294 295 295 296 296 294 295 297 298 300 303 303 304 304 303 304 304 304 305 306 307 307
266 268 271 274 276 279 281 284 287 289 290 290 287 285 285 284 286 287 289 291 292 294 295 294 294 293 293 294 296 296 298 302 302 303 304 304 303 302 303 304 305 307 307
264 266 270 274 276 278 281 283 286 288 288 288 285 284 285 287 288 288 288 290 291 293 293 294 294 292 292 295 296 297 299 302 303 304 304 304 303 301 302 303 305 305 306
264 266 269 273 276 278 279 282 285 287 287 286 286 285 286 287 287 287 288 290 292 293 293 294 293 292 293 295 297 299 302 303 305 306 306 304 303 303 301 301 302 305 306
262 266 268 272 277 278 279 281 282 283 284 286 287 289 286 285 285 286 288 290 290 292 292 292 292 294 295 296 298 300 303 304 306 307 306 305 305 304 303 302 303 304 306
259 264 268 272 277 279 279 279 281 283 284 285 287 288 287 286 286 286 288 290 291 293 294 292 291 291 292 295 297 299 301 304 306 307 306 305 305 303 302 302 303 305 307
258 262 267 271 275 278 279 278 279 280 282 282 284 286 287 287 286 288 289 291 292 293 294 293 292 291 292 295 296 298 301 304 305 306 305 304 304 304 303 301 302 305 305
260 264 266 269 272 277 279 280 280 280 280 281 284 286 286 287 288 289 288 289 289 289 291 292 294 293 294 295 296 298 301 303 303 304 303 303 303 303 302 301 301 303 303
257 261 265 268 271 276 278 280 280 280 281 282 284 286 287 288 288 286 285 285 286 287 290 292 294 294 296 297 297 299 300 301 302 301 300 300 301 300 300 300 300 300 300
256 259 263 267 270 273 276 279 280 280 281 281 282 284 286 286 286 285 285 285 286 289 291 294 295 296 296 297 297 298 299 298 297 297 297 298 298 298 298 298 298 299 300
257 261 265 267 269 272 273 277 281 282 281 280 282 283 284 285 285 285 285 287 289 290 292 294 296 297 297 297 298 298 295 293 292 293 293 294 296 296 296 296 296 299 300
259 263 267 269 270 273 274 276 280 283 283 284 283 284 285 287 287 287 287 288 290 291 292 294 295 297 298 298 298 296 293 290 288 287 287 289 292 294 295 296 297 300 300
259 264 269 270 272 274 275 276 279 282 283 284 285 286 288 289 289 289 289 288 290 292 293 293 294 294 296 296 295 294 292 287 285 284 284 286 290 292 291 291 294 296 295
260 264 267 270 273 274 274 275 277 280 282 284 284 285 287 288 288 289 289 289 290 291 292 292 292 293 293 293 293 293 289 286 284 282 283 285 287 287 286 287 289 290 291
261 264 267 269 271 273 273 274 275 278 281 284 284 285 287 288 288 288 289 290 290 290 290 290 290 291 290 289 289 288 287 286 283 281 283 284 284 284 281 280 281 282 283
Height
5670 5669 5668 5666 5665 5664 5662 5660 5658 5656 5653 5651 5649 5647 5644 5642 5639 5636 5634 5632 5629 5626 5624 5621 5618 5615 5613 5610 5608 5606 5605 5605 5605 5606 5605 5604 5603 5602 5601 5600 5598 5597 5596
5661 5660 5659 5657 5656 5655 5653 5651 5648 5646 5644 5641 5639 5637 5635 5633 5630 5628 5626 5623 5621 5619 5616 5613 5610 5608 5605 5603 5600 5599 5598 5597 5597 5597 5597 5596 5595 5594 5593 5592 5590 5588 5586
5652 5651 5650 5648 5647 5646 5644 5641 5639 5636 5634 5632 5630 5628 5626 5624 5622 5620 5618 5616 5614 5612 5609 5606 5603 5600 5598 5596 5594 5592 5591 5590 5589 5589 5589 5588 5587 5586 5585 5584 5582 5580 5577
5643 5642 5641 5640 5639 5637 5635 5632 5630 5627 5625 5623 5621 5619 5618 5616 5614 5612 5611 5609 5607 5605 5602 5599 5596 5594 5592 5590 5588 5586 5585 5583 5582 5582 5582 5581 5580 5578 5577 5576 5574 5572 5569
5635 5634 5633 5632 5630 5628 5626 5624 5621 5618 5616 5614 5613 5611 5609 5608 5606 5605 5603 5602 5600 5598 5596 5593 5591 5588 5586 5583 5582 5580 5578 5577 5576 5575 5574 5573 5572 5571 5570 5568 5566 5564 5562
5628 5627 5626 5624 5622 5620 5618 5616 5613 5611 5609 5607 5605 5603 5601 5599 5598 5597 5596 5595 5594 5592 5590 5588 5585 5583 5581 5578 5576 5574 5572 5571 5570 5569 5568 5566 5565 5564 5562 5560 5558 5556 5554
5620 5619 5618 5617 5615 5613 5611 5608 5606 5604 5601 5599 5597 5596 5594 5592 5591 5590 5589 5589 5588 5586 5585 5583 5581 5578 5575 5573 5571 5569 5567 5565 5564 5563 5562 5561 5559 5558 5556 5554 5551 5548 5545
5613 5612 5611 5609 5608 5606 5604 5601 5599 5597 5594 5592 5590 5589 5587 5585 5584 5583 5583 5582 5582 5580 5579 5577 5575 5572 5570 5568 5566 5565 5563 5561 5559 5558 5557 5555 5553 5551 5549 5547 5544 5542 5539
5605 5604 5603 5602 5600 5599 5597 5595 5592 5590 5588 5586 5584 5582 5581 5579 5578 5578 5577 5577 5576 5575 5573 5571 5569 5567 5565 5563 5561 5560 5558 5557 5555 5553 5552 5550 5548 5546 5543 5541 5538 5535 5533
5597 5597 5596 5595 5594 5592 5590 5588 5586 5584 5582 5579 5577 5576 5575 5574 5573 5573 5572 5572 5571 5569 5568 5566 5564 5562 5560 5558 5556 5555 5554 5552 5551 5549 5547 5545 5543 5541 5538 5535 5532 5530 5527
5590 5589 5588 5588 5587 5585 5583 5582 5580 5578 5576 5574 5572 5571 5570 5569 5569 5568 5567 5567 5566 5564 5562 5561 5559 5557 5555 5554 5552 5551 5550 5548 5547 5545 5543 5541 5539 5536 5533 5530 5527 5524 5522
5582 5582 5581 5581 5580 5579 5577 5575 5573 5572 5570 5569 5567 5566 5565 5564 5564 5563 5562 5561 5560 5559 5558 5556 5554 5552 5551 5549 5548 5547 5545 5544 5542 5540 5538 5536 5533 5531 5528 5525 5522 5519 5516
5575 5575 5574 5574 5573 5572 5571 5569 5568 5566 5565 5563 5562 5561 5561 5560 5559 5558 5558 5556 5555 5554 5552 5551 5549 5548 5546 5545 5544 5542 5541 5539 5537 5535 5533 5530 5527 5525 5522 5519 5517 5514 5511
5568 5568 5568 5567 5566 5565 5564 5563 5562 5560 5559 5558 5557 5557 5557 5556 5555 5554 5553 5551 5550 5549 5547 5546 5545 5543 5542 5540 5539 5538 5536 5534 5532 5530 5527 5524 5521 5519 5516 5513 5511 5508 5506
5561 5561 5561 5561 5560 5559 5558 5557 5556 5555 5554 5553 5553 5552 5552 5551 5550 5549 5548 5547 5545 5544 5543 5542 5540 5539 5537 5536 5535 5533 5531 5529 5527 5524 5521 5518 5515 5513 5510 5508 5505 5503 5501
5555 5555 5555 5555 5554 5553 5552 5551 5550 5549 5549 5548 5548 5547 5546 5546 5545 5544 5543 5541 5540 5539 5538 5537 5535 5534 5533 5532 5530 5528 5526 5524 5521 5518 5515 5512 5510 5507 5505 5502 5500 5498 5495
5548 5549 5549 5549 5548 5547 5547 5546 5545 5544 5543 5543 5543 5542 5541 5540 5539 5538 5537 5536 5535 5534 5532 5531 5530 5529 5528 5527 5525 5523 5521 5518 5515 5512 5509 5506 5504 5501 5499 5497 5495 5493 5491
5542 5542 5543 5543 5543 5542 5541 5541 5540 5539 5539 5538 5537 5537 5536 5535 5534 5533 5531 5530 5529 5528 5527 5526 5525 5524 5522 5521 5519 5517 5515 5512 5509 5507 5504 5501 5499 5496 5494 5492 5490 5488 5487
5535 5536 5537 5537 5537 5537 5536 5535 5535 5534 5534 5533 5532 5531 5531 5529 5528 5527 5525 5525 5524 5523 5522 5521 5520 5518 5517 5515 5513 5511 5509 5506 5504 5501 5498 5496 5494 5492 5489 5488 5486 5484 5482
5529 5530 5530 5531 5531 5531 5530 5530 5529 5528 5528 5527 5527 5526 5525 5523 5522 5521 5520 5519 5518 5517 5516 5515 5514 5512 5510 5508 5506 5504 5502 5500 5497 5495 5493 5491 5489 5487 5485 5483 5481 5480 5478
5522 5523 5524 5524 5525 5525 5524 5524 5523 5523 5522 5521 5521 5520 5519 5518 5516 5515 5514 5513 5513 5512 5510 5509 5507 5506 5504 5502 5500 5497 5495 5493 5491 5489 5487 5485 5483 5482 5480 5479 5477 5476 5474
5515 5516 5517 5518 5518 5518 5518 5518 5517 5517 5516 5515 5514 5513 5512 5511 5510 5509 5508 5507 5506 5505 5504 5502 5501 5499 5497 5495 5493 5491 5488 5487 5485 5483 5482 5480 5479 5477 5475 5474 5473 5471 5470
5508 5509 5510 5511 5511 5511 5511 5511 5511 5510 5509 5508 5507 5506 5505 5504 5503 5502 5501 5500 5499 5498 5496 5495 5493 5492 5490 5488 5486 5484 5482 5481 5479 5477 5476 5475 5474 5472 5471 5470 5468 5467 5466
5501 5502 5503 5504 5504 5504 5504 5504 5504 5503 5502 5501 5501 5500 5499 5498 5496 5495 5494 5493 5492 5490 5489 5487 5486 5484 5483 5481 5478 5477 5475 5474 5472 5472 5471 5470 5469 5468 5467 5466 5464 5463 5462
5494 5495 5496 5497 5497 5497 5497 5497 5497 5496 5496 5495 5494 5493 5492 5491 5489 5488 5487 5486 5484 5483 5482 5480 5479 5477 5475 5474 5472 5470 5469 5468 5467 5466 5465 5465 5464 5463 5462 5461 5461 5460 5459
5487 5488 5489 5489 5489 5490 5490 5490 5489 5489 5488 5487 5486 5485 5484 5483 5482 5481 5480 5478 5477 5476 5474 5473 5471 5469 5468 5467 5465 5464 5463 5462 5461 5460 5460 5459 5459 5458 5458 5457 5457 5456 5456